When you browse on this site, cookies collect data to enhance your experience and personalize the content and advertising you see.
Visit our Privacy Policy to learn more. By continuing to use the site, you agree to this use of cookies and data.
  • In Spain
  • List of Countries
  • For 7 days
  • Water Temperature
  • Satellite Maps
  • Weather Map
  • Weather Widgets
  • user-avatar
    Login

    Hourly Weather Valevo

    Today, 25 April, Thursday

    Time Temperature Precipitation Wind Pressure Humidity
    00:00 +13°C° 0 mm 3 mps 740 mmHg 72%
    01:00 +13°C° 0 mm 2 mps 740 mmHg 70%
    02:00 +13°C° 0 mm 2 mps 740 mmHg 69%
    03:00 +13°C° 0 mm 2 mps 740 mmHg 69%
    04:00 +12°C° 0 mm 2 mps 740 mmHg 69%
    05:00 +14°C° 0 mm 2 mps 740 mmHg 68%
    06:00 +15°C° 0 mm 2 mps 740 mmHg 68%
    07:00 +17°C° 0 mm 2 mps 740 mmHg 65%
    08:00 +19°C° 0 mm 2 mps 740 mmHg 59%
    09:00 +21°C° 0 mm 2 mps 740 mmHg 53%
    10:00 +25°C° 0 mm 2 mps 740 mmHg 47%
    11:00 +26°C° 0 mm 2 mps 740 mmHg 44%
    12:00 +27°C° 0 mm 2 mps 740 mmHg 41%
    13:00 +28°C° 0 mm 1 mps 740 mmHg 38%
    14:00 +27°C° 0 mm 2 mps 739 mmHg 42%
    15:00 +27°C° 0 mm 2 mps 739 mmHg 47%
    16:00 +27°C° 0 mm 2 mps 739 mmHg 51%
    17:00 +24°C° 0 mm 2 mps 739 mmHg 58%
    18:00 +22°C° 0 mm 1 mps 739 mmHg 66%
    19:00 +20°C° 0 mm 1 mps 738 mmHg 73%
    20:00 +18°C° 0 mm 2 mps 739 mmHg 74%
    21:00 +17°C° 0 mm 2 mps 739 mmHg 75%
    22:00 +17°C° 0 mm 2 mps 739 mmHg 75%
    23:00 +16°C° 0 mm 2 mps 739 mmHg 75%

    Tomorrow, 26 April, Friday

    Time Temperature Precipitation Wind Pressure Humidity
    00:00 +16°C° 0 mm 2 mps 739 mmHg 74%
    01:00 +15°C° 0 mm 2 mps 739 mmHg 73%
    02:00 +15°C° 0 mm 2 mps 739 mmHg 73%
    03:00 +15°C° 0 mm 2 mps 739 mmHg 74%
    04:00 +14°C° 0 mm 2 mps 738 mmHg 74%
    05:00 +16°C° 0 mm 2 mps 738 mmHg 72%
    06:00 +17°C° 0 mm 2 mps 738 mmHg 71%
    07:00 +18°C° 0 mm 2 mps 738 mmHg 69%
    08:00 +20°C° 0 mm 2 mps 738 mmHg 60%
    09:00 +24°C° 0 mm 2 mps 738 mmHg 52%
    10:00 +26°C° 0 mm 2 mps 738 mmHg 43%
    11:00 +27°C° 0 mm 2 mps 738 mmHg 40%
    12:00 +28°C° 0 mm 2 mps 737 mmHg 36%
    13:00 +30°C° 0 mm 2 mps 737 mmHg 33%
    14:00 +29°C° 0 mm 2 mps 736 mmHg 37%
    15:00 +29°C° 0 mm 2 mps 736 mmHg 42%
    16:00 +29°C° 0 mm 2 mps 735 mmHg 46%
    17:00 +26°C° 0 mm 2 mps 735 mmHg 51%
    18:00 +24°C° 0 mm 2 mps 735 mmHg 56%
    19:00 +21°C° 0 mm 2 mps 735 mmHg 62%
    20:00 +20°C° 0 mm 2 mps 735 mmHg 61%
    21:00 +19°C° 0 mm 2 mps 735 mmHg 61%
    22:00 +18°C° 0 mm 2 mps 735 mmHg 61%
    23:00 +17°C° 0 mm 2 mps 735 mmHg 65%

    Day after tomorrow, 27 April, Saturday

    Time Temperature Precipitation Wind Pressure Humidity
    00:00 +16°C° 0 mm 1 mps 735 mmHg 68%
    01:00 +16°C° 0 mm 1 mps 735 mmHg 72%
    02:00 +15°C° 0.1 mm 1 mps 735 mmHg 77%
    03:00 +15°C° 0.1 mm 1 mps 735 mmHg 82%
    04:00 +14°C° 0.1 mm 0 mps 735 mmHg 87%
    05:00 +15°C° 0.6 mm 1 mps 735 mmHg 88%
    06:00 +15°C° 0.6 mm 1 mps 735 mmHg 90%
    07:00 +15°C° 0.6 mm 1 mps 735 mmHg 91%
    08:00 +16°C° 0.4 mm 1 mps 735 mmHg 88%
    09:00 +17°C° 0.4 mm 2 mps 736 mmHg 85%
    10:00 +17°C° 0.4 mm 2 mps 736 mmHg 82%
    11:00 +16°C° 0.8 mm 2 mps 735 mmHg 85%
    12:00 +14°C° 0.8 mm 3 mps 735 mmHg 89%
    13:00 +12°C° 0.8 mm 3 mps 735 mmHg 92%
    14:00 +13°C° 0.5 mm 3 mps 735 mmHg 90%
    15:00 +13°C° 0.5 mm 3 mps 735 mmHg 89%
    16:00 +14°C° 0.5 mm 2 mps 734 mmHg 88%
    17:00 +13°C° 0.2 mm 2 mps 735 mmHg 90%
    18:00 +13°C° 0.2 mm 1 mps 735 mmHg 92%
    19:00 +12°C° 0.2 mm 1 mps 735 mmHg 94%
    20:00 +12°C° 0 mm 1 mps 736 mmHg 94%
    21:00 +11°C° 0 mm 1 mps 736 mmHg 94%
    22:00 +10°C° 0 mm 1 mps 736 mmHg 94%
    23:00 +10°C° 0.3 mm 1 mps 736 mmHg 94%

    28 April, Sunday

    Time Temperature Precipitation Wind Pressure Humidity
    00:00 +10°C° 0.3 mm 1 mps 736 mmHg 93%
    01:00 +10°C° 0.3 mm 1 mps 736 mmHg 93%
    02:00 +10°C° 0 mm 1 mps 736 mmHg 93%
    03:00 +9°C° 0 mm 1 mps 736 mmHg 92%
    04:00 +8°C° 0 mm 2 mps 736 mmHg 92%
    05:00 +10°C° 0 mm 1 mps 736 mmHg 88%
    06:00 +12°C° 0 mm 1 mps 736 mmHg 83%
    07:00 +13°C° 0 mm 1 mps 736 mmHg 79%
    08:00 +15°C° 0.1 mm 2 mps 736 mmHg 73%
    09:00 +16°C° 0.1 mm 2 mps 736 mmHg 67%
    10:00 +17°C° 0.1 mm 2 mps 736 mmHg 61%
    11:00 +17°C° 0.1 mm 2 mps 736 mmHg 60%
    12:00 +18°C° 0.1 mm 2 mps 735 mmHg 59%
    13:00 +18°C° 0.1 mm 2 mps 735 mmHg 57%
    14:00 +18°C° 0.3 mm 2 mps 734 mmHg 59%
    15:00 +18°C° 0.3 mm 2 mps 734 mmHg 60%
    16:00 +18°C° 0.3 mm 2 mps 734 mmHg 62%
    17:00 +16°C° 0.1 mm 1 mps 734 mmHg 66%
    18:00 +15°C° 0.1 mm 1 mps 734 mmHg 71%
    19:00 +12°C° 0.1 mm 0 mps 734 mmHg 76%
    20:00 +12°C° 0.4 mm 0 mps 734 mmHg 78%
    21:00 +13°C° 0.4 mm 1 mps 734 mmHg 81%
    22:00 +13°C° 0.4 mm 1 mps 734 mmHg 84%
    23:00 +12°C° 0.5 mm 1 mps 734 mmHg 87%

    29 April, Monday

    Time Temperature Precipitation Wind Pressure Humidity
    00:00 +11°C° 0.5 mm 0 mps 734 mmHg 91%
    01:00 +10°C° 0.5 mm 0 mps 734 mmHg 94%
    02:00 +10°C° 0.2 mm 0 mps 734 mmHg 94%
    03:00 +10°C° 0.2 mm 0 mps 734 mmHg 94%
    04:00 +10°C° 0.2 mm 0 mps 733 mmHg 95%
    05:00 +10°C° 0.4 mm 0 mps 733 mmHg 93%
    06:00 +11°C° 0.4 mm 0 mps 733 mmHg 92%
    07:00 +11°C° 0.4 mm 0 mps 733 mmHg 91%
    08:00 +12°C° 0.5 mm 0 mps 733 mmHg 89%
    09:00 +13°C° 0.5 mm 0 mps 733 mmHg 86%
    10:00 +15°C° 0.5 mm 1 mps 733 mmHg 84%
    11:00 +16°C° 1.4 mm 1 mps 733 mmHg 79%
    12:00 +18°C° 1.4 mm 1 mps 732 mmHg 75%
    13:00 +19°C° 1.4 mm 1 mps 732 mmHg 70%
    14:00 +18°C° 1.7 mm 1 mps 731 mmHg 72%
    15:00 +17°C° 1.7 mm 2 mps 731 mmHg 75%
    16:00 +16°C° 1.7 mm 2 mps 731 mmHg 77%
    17:00 +15°C° 0.6 mm 2 mps 731 mmHg 81%
    18:00 +14°C° 0.6 mm 2 mps 731 mmHg 85%
    19:00 +13°C° 0.6 mm 2 mps 732 mmHg 89%
    20:00 +12°C° 0.2 mm 2 mps 732 mmHg 90%
    21:00 +12°C° 0.2 mm 2 mps 732 mmHg 91%
    22:00 +10°C° 0.2 mm 2 mps 732 mmHg 92%
    23:00 +10°C° 0 mm 2 mps 732 mmHg 92%

    30 April, Tuesday

    Time Temperature Precipitation Wind Pressure Humidity
    00:00 +10°C° 0 mm 2 mps 732 mmHg 93%
    01:00 +9°C° 0 mm 2 mps 732 mmHg 93%
    02:00 +9°C° 0.4 mm 2 mps 732 mmHg 94%
    03:00 +9°C° 0.4 mm 2 mps 732 mmHg 94%
    04:00 +9°C° 0.4 mm 2 mps 732 mmHg 95%
    05:00 +9°C° 1.7 mm 2 mps 732 mmHg 94%
    06:00 +9°C° 1.7 mm 3 mps 732 mmHg 94%
    07:00 +9°C° 1.7 mm 3 mps 732 mmHg 94%
    08:00 +9°C° 0.4 mm 3 mps 732 mmHg 91%
    09:00 +10°C° 0.4 mm 4 mps 732 mmHg 88%
    10:00 +10°C° 0.4 mm 5 mps 733 mmHg 85%
    11:00 +12°C° 0.1 mm 5 mps 732 mmHg 83%
    12:00 +12°C° 0.1 mm 5 mps 732 mmHg 80%
    13:00 +13°C° 0.1 mm 5 mps 732 mmHg 78%
    14:00 +13°C° 0.1 mm 4 mps 732 mmHg 77%
    15:00 +13°C° 0.1 mm 4 mps 732 mmHg 76%
    16:00 +14°C° 0.1 mm 4 mps 732 mmHg 74%
    17:00 +13°C° 0.1 mm 4 mps 732 mmHg 80%
    18:00 +11°C° 0.1 mm 3 mps 733 mmHg 86%
    19:00 +10°C° 0.1 mm 2 mps 733 mmHg 91%
    20:00 +10°C° 0 mm 2 mps 733 mmHg 92%
    21:00 +9°C° 0 mm 2 mps 733 mmHg 93%
    22:00 +8°C° 0 mm 2 mps 734 mmHg 94%
    23:00 +9°C° 0 mm 2 mps 734 mmHg 93%
    Show more